Flag for United Arab Emirates Weather past 2 weeks in Al Ain, Abu Dhabi, United Arab Emirates

Now
95 °F

Clear.


Feels Like: 95 °F
Forecast: 90 / 109 °F
Wind: 8 mph from East

Location: Al Ain International Airport

Current Time: Aug 2, 2015 at 2:35:47 AM

Latest Report: Aug 2, 2015 at 1:00 AM


Visibility: 10 mi

Pressure: 29.62 "Hg

Humidity: 32%

Dew point: 61 °F

Historic Weather in Al Ain — Graph

°F

Al Ain temperature yesterday

Maximum temperature yesterday: 109 °F (at 4:00 PM)
Minimum temperature yesterday: 88 °F (at 5:00 AM)
Average temperature yesterday: 98 °F

Past Weeks' High & Low Weather Summary

 TemperatureHumidityPressure
High117 °F (Jul 18, 3:00 PM)79% (Jul 19, 6:00 AM)29.65 "Hg (Jul 19, 6:00 AM)
Low84 °F (Jul 20, 7:00 AM)6% (Jul 20, 5:00 PM)29.36 "Hg (Jul 18, 4:00 PM)
Average101 °F26%29.52 "Hg
* Reported Jul 18 1:00 AM — Aug 2 1:00 AM, Al Ain, Weather by CustomWeather, © 2015

Note: Actual official high and low records may vary slightly from our data, if they occured in-between our weather recording intervals... More about our weather records

Advertising

Al Ain weather history for previous 24 hours

 ConditionsComfort  
Time TempWeatherWind HumidityBarometerVisibility
1:00 AM
Sun, Aug 2
95 °FClear.8 mph32%29.62 "Hg10 mi
12:00 AM95 °FClear.7 mph32%29.62 "Hg10 mi
11:00 PM
Sat, Aug 1
95 °FClear.8 mph32%29.62 "Hg10 mi
10:00 PM97 °FClear.7 mph30%29.62 "Hg10 mi
9:00 PM97 °FClear.9 mph30%29.59 "Hg10 mi
8:00 PM97 °FClear.16 mph30%29.59 "Hg10 mi
7:00 PM99 °FLow level haze.22 mph27%29.56 "Hg3 mi
6:00 PM104 °FLow level haze.24 mph21%29.56 "Hg2 mi
5:00 PM108 °FClear.7 mph20%29.53 "Hg4 mi
4:00 PM109 °FClear.8 mph19%29.56 "Hg5 mi
3:00 PM108 °FClear.10 mph20%29.59 "Hg5 mi
2:00 PM108 °FClear.8 mph22%29.59 "Hg5 mi
1:00 PM108 °FClear.12 mph22%29.59 "Hg5 mi
12:00 PM104 °FClear.17 mph24%29.62 "Hg5 mi
11:00 AM100 °FClear.17 mph29%29.62 "Hg5 mi
10:00 AM97 °FClear.14 mph32%29.65 "Hg5 mi
9:00 AM95 °FSunny.15 mph34%29.65 "Hg10 mi
8:00 AM91 °FSunny.13 mph38%29.65 "Hg10 mi
7:00 AM90 °FSunny.12 mph38%29.62 "Hg10 mi
6:00 AM88 °FSunny.10 mph40%29.62 "Hg10 mi
5:00 AM88 °FClear.12 mph40%29.59 "Hg4 mi
4:00 AM90 °FClear.7 mph36%29.59 "Hg10 mi
3:00 AM91 °FClear.15 mph34%29.56 "Hg5 mi
2:00 AM91 °FClear.21 mph34%29.53 "Hg4 mi
Weather by CustomWeather, © 2015

See weather overviewHow to use our weather pages